Weather History for Ponca City, OK

Change the Weather History Date:

Saturday, January 19, 2013

  Actual Average Record
Temperature  
Mean Temperature 48 °F -  
Max Temperature 63 °F 46 °F 73 °F (1951)
Min Temperature 28 °F 25 °F 1 °F (1956)
Degree Days  
Heating Degree Days 17    
Moisture  
Dew Point 29 °F    
Average Humidity 50    
Maximum Humidity 75    
Minimum Humidity 29    
Precipitation  
Precipitation 0.00 in - - ()
Sea Level Pressure  
Sea Level Pressure 30.12 in    
Wind  
Wind Speed 7 mph (WSW)    
Max Wind Speed 9 mph    
Max Gust Speed 17 mph    
Visibility 10 miles    
Events      
Averages and records for this station are not official NWS values.
T = Trace of Precipitation, MM = Missing Value Source: NWS Daily Summary

Daily Weather History Graph

Daily Weather History Graph

Search for Another Location

Airport:

Trip Planner

Search our weather history database for the weather conditions in past years. The results will help you decide how hot, cold, wet, or windy it might be!

Date:

Astronomy

Jan. 19, 2013 Rise Set
Actual Time 7:38 AM CST 5:40 PM CST
Civil Twilight 7:10 AM CST 6:08 PM CST
Nautical Twilight 6:38 AM CST 6:40 PM CST
Astronomical Twilight 6:07 AM CST 7:10 PM CST
Moon 12:05 PM CST (1/19) 1:16 AM CST (1/19)
Length of Visible Light 10h 57m
Length of Day
10h 01m
First Quarter, 57% of the Moon is Illuminated
Jan 19
First Quarter
Jan 26
Full
Feb 3
Last Quarter
Feb 10
New
Feb 17
First Quarter

Hourly Weather History & Observations

Time (CST) Temp. Windchill Dew Point Humidity Pressure Visibility Wind Dir Wind Speed Gust Speed Precip Events Conditions
12:53 AM 46.0 °F 42.5 °F 28.9 °F 51% 30.10 in 10.0 mi South 6.9 mph - N/A   Clear
1:53 AM 46.0 °F 42.5 °F 30.0 °F 54% 30.09 in 10.0 mi South 6.9 mph - N/A   Clear
2:53 AM 46.0 °F 41.4 °F 30.0 °F 54% 30.08 in 10.0 mi SSW 9.2 mph 16.1 mph N/A   Clear
3:53 AM 46.0 °F 42.5 °F 30.0 °F 54% 30.07 in 10.0 mi SSW 6.9 mph 16.1 mph N/A   Clear
4:53 AM 46.0 °F 41.4 °F 30.0 °F 54% 30.05 in 10.0 mi SSW 9.2 mph 17.3 mph N/A   Clear
5:53 AM 45.0 °F 40.1 °F 30.0 °F 56% 30.06 in 10.0 mi SSW 9.2 mph - N/A   Clear
6:53 AM 42.1 °F 39.2 °F 30.0 °F 62% 30.09 in 10.0 mi SW 4.6 mph - N/A   Clear
7:53 AM 41.0 °F 38.0 °F 30.0 °F 65% 30.10 in 10.0 mi SSW 4.6 mph - N/A   Clear
8:53 AM 43.0 °F 38.8 °F 30.9 °F 62% 30.11 in 10.0 mi SSW 6.9 mph - N/A   Clear
10:53 AM 52.0 °F - 30.9 °F 45% 30.13 in 10.0 mi SW 8.1 mph - N/A   Clear
11:53 AM 55.0 °F - 30.9 °F 40% 30.12 in 10.0 mi SW 6.9 mph - N/A   Clear
12:53 PM 59.0 °F - 30.9 °F 35% 30.08 in 10.0 mi WSW 5.8 mph - N/A   Clear
1:53 PM 60.1 °F - 30.0 °F 32% 30.07 in 10.0 mi WSW 5.8 mph - N/A   Clear
2:53 PM 62.1 °F - 30.9 °F 31% 30.07 in 10.0 mi SW 6.9 mph - N/A   Clear
3:53 PM 63.0 °F - 30.0 °F 29% 30.08 in 10.0 mi WNW 5.8 mph - N/A   Clear
4:53 PM 62.1 °F - 28.9 °F 29% 30.11 in 10.0 mi WNW 4.6 mph - N/A   Clear
5:53 PM 55.0 °F - 27.0 °F 34% 30.13 in 10.0 mi NNW 4.6 mph - N/A   Clear
6:53 PM 50.0 °F - 26.1 °F 39% 30.16 in 10.0 mi North 3.5 mph - N/A   Clear
7:53 PM 39.9 °F 37.8 °F 25.0 °F 55% 30.19 in 10.0 mi NNE 3.5 mph - N/A   Clear
8:53 PM 37.9 °F 35.5 °F 25.0 °F 60% 30.21 in 10.0 mi NNE 3.5 mph - N/A   Clear
9:53 PM 33.1 °F 28.7 °F 24.1 °F 70% 30.22 in 10.0 mi North 4.6 mph - N/A   Clear
10:53 PM 33.8 °F 28.6 °F 24.8 °F 70% 30.23 in 10.0 mi NNE 5.8 mph - N/A   Clear
11:53 PM 28.9 °F 23.9 °F 21.9 °F 75% 30.24 in 10.0 mi NNE 4.6 mph - N/A   Clear